Flag for Canada Weather past 2 weeks in Québec, Quebec, Canada

Now
45 °F

Overcast.


Feels Like: 41 °F
Forecast: 20 / 46 °F
Wind: 7 mph from Northwest

Location: Quebec Weather Station


UV Index: 3 (Moderate)

Visibility: 30 mi


Pressure: 30.41 "Hg

Humidity: 34%

Dew point: 18 °F

Location of QuébecLocation

Historic Weather in Québec

°F

Québec temperature yesterday

Maximum temperature yesterday: 46 °F (at 5:00 PM)
Minimum temperature yesterday: 34 °F (at 11:00 PM)
Average temperature yesterday: 41 °F

Past Weeks' High & Low Weather Summary

 TemperatureHumidityPressure
High54 °F (Apr 15, 1:00 PM)100% (Apr 8, 4:00 PM)30.84 "Hg (Apr 8, 4:00 PM)
Low16 °F (Apr 16, 7:00 AM)27% (Apr 19, 6:00 PM)29.21 "Hg (Apr 8, 5:00 PM)
Average36 °F68%30.00 "Hg
* Reported Apr 5 1:00 PM — Apr 20 1:00 PM, Québec, Weather by CustomWeather, © 2014

Note: Actual official high and low records may vary slightly from our data, if they occured in-between our weather recording intervals... More about our weather records

Advertising

Historic Weather Conditions — Data for Previous 24 hours

 ConditionsComfort  
Time TempWeatherWind HumidityBarometerVisibility
1:00 PM
Apr 20
43 °FOvercast.5 mph39%30.43 "Hg30 mi
12:00 PM41 °FOvercast.5 mph42%30.46 "Hg30 mi
11:00 AM41 °FOvercast.3 mph45%30.48 "Hg30 mi
10:00 AM37 °FOvercast.6 mph48%30.50 "Hg30 mi
9:00 AM34 °FOvercast.No wind51%30.53 "Hg30 mi
8:00 AM30 °FPartly sunny.2 mph59%30.55 "Hg30 mi
7:00 AM28 °FPassing clouds.5 mph59%30.54 "Hg30 mi
6:00 AM27 °FPassing clouds.6 mph59%30.52 "Hg30 mi
5:00 AM28 °FPassing clouds.7 mph55%30.50 "Hg15 mi
4:00 AM28 °FClear.6 mph55%30.49 "Hg15 mi
3:00 AM30 °FClear.8 mph47%30.47 "Hg15 mi
2:00 AM28 °FClear.7 mph55%30.47 "Hg15 mi
1:00 AM28 °FClear.5 mph55%30.46 "Hg15 mi
12:00 AM28 °FClear.No wind59%30.45 "Hg15 mi
11:00 PM
Apr 19
34 °FClear.7 mph48%30.42 "Hg15 mi
10:00 PM36 °FClear.6 mph41%30.42 "Hg15 mi
9:00 PM39 °FClear.9 mph39%30.41 "Hg30 mi
8:00 PM41 °FSunny.8 mph28%30.36 "Hg30 mi
7:00 PM45 °FPassing clouds.13 mph29%30.33 "Hg30 mi
6:00 PM46 °FPassing clouds.12 mph27%30.31 "Hg30 mi
5:00 PM46 °FPassing clouds.7 mph37%30.29 "Hg30 mi
4:00 PM45 °FScattered clouds.8 mph37%30.28 "Hg30 mi
3:00 PM45 °FPartly sunny.15 mph42%30.27 "Hg30 mi
2:00 PM43 °FPartly sunny.16 mph49%30.28 "Hg30 mi
Weather by CustomWeather, © 2014

See weather overview